McGregor, MN

8:26 PM CDT on April 28, 2017 (GMT -0500)
McGregor

Weather History for KHZX - October, 2012

Change the Weather History Date:

Sunday, October 7, 2012

  Actual Average (KAIT) Record (KAIT)
Temperature  
Mean Temperature 39 °F -  
Max Temperature 50 °F 58 °F 82 °F (1980)
Min Temperature 28 °F 36 °F 19 °F (2001)
Degree Days  
Heating Degree Days 26    
Moisture  
Dew Point 24 °F    
Average Humidity 60    
Maximum Humidity 93    
Minimum Humidity 30    
Precipitation  
Precipitation 0.00 in - - ()
Sea Level Pressure  
Sea Level Pressure 29.99 in    
Wind  
Wind Speed 5 mph (SSW)    
Max Wind Speed 16 mph    
Max Gust Speed 25 mph    
Visibility 10 miles    
Events      
Averages and records for this station are not official NWS values.
T = Trace of Precipitation, MM = Missing Value Source: NWS Daily Summary

Daily Weather History Graph

Daily Weather History Graph

Search for Another Location

Airport or City:

Trip Planner

Search our weather history database for the weather conditions in past years. The results will help you decide how hot, cold, wet, or windy it might be!

Date:

Astronomy

Oct. 07, 2012 Rise Set
Actual Time 7:20 AM CDT 6:40 PM CDT
Civil Twilight 6:50 AM CDT 7:10 PM CDT
Nautical Twilight 6:15 AM CDT 7:45 PM CDT
Astronomical Twilight 5:40 AM CDT 8:20 PM CDT
Moon 11:38 PM CDT (10/7) 2:13 PM CDT (10/7)
Length of Visible Light 12h 20m
Length of Day
11h 19m
Waning Gibbous, 56% of the Moon is Illuminated
Oct 7
Waning Gibbous
Oct 8
Last Quarter
Oct 15
New
Oct 21
First Quarter
Oct 29
Full

Hourly Weather History & Observations

Time (CDT) Temp. Windchill Dew Point Humidity Pressure Visibility Wind Dir Wind Speed Gust Speed Precip Events Conditions
12:12 AM 30.2 °F - 24.8 °F 80% 30.17 in 10.0 mi Calm Calm - N/A   Clear
12:32 AM 28.4 °F - 24.8 °F 86% 30.17 in 10.0 mi Calm Calm - N/A   Clear
12:50 AM 28.4 °F 24.6 °F 24.8 °F 86% 30.16 in 10.0 mi SSW 3.5 mph - N/A   Clear
1:11 AM 28.4 °F 24.6 °F 23.0 °F 80% 30.16 in 10.0 mi SW 3.5 mph - N/A   Clear
1:31 AM 28.4 °F 23.3 °F 24.8 °F 86% 30.16 in 10.0 mi SW 4.6 mph - N/A   Clear
1:52 AM 30.2 °F 25.4 °F 24.8 °F 80% 30.15 in 10.0 mi SSW 4.6 mph - N/A   Clear
2:11 AM 30.2 °F 26.7 °F 26.6 °F 86% 30.14 in 10.0 mi SSW 3.5 mph - N/A   Clear
2:31 AM 30.2 °F 26.7 °F 26.6 °F 86% 30.14 in 10.0 mi SSW 3.5 mph - N/A   Clear
2:51 AM 28.4 °F 24.6 °F 26.6 °F 93% 30.13 in 10.0 mi SSW 3.5 mph - N/A   Clear
3:10 AM 30.2 °F - 26.6 °F 86% 30.13 in 10.0 mi Calm Calm - N/A   Clear
3:31 AM 28.4 °F 24.6 °F 26.6 °F 93% 30.12 in 10.0 mi SW 3.5 mph - N/A   Clear
3:51 AM 30.2 °F - 26.6 °F 86% 30.12 in 10.0 mi Calm Calm - N/A   Clear
4:10 AM 30.2 °F 26.7 °F 26.6 °F 86% 30.11 in 10.0 mi SW 3.5 mph - N/A   Clear
4:31 AM 30.2 °F 25.4 °F 26.6 °F 86% 30.10 in 10.0 mi SW 4.6 mph - N/A   Clear
4:51 AM 30.2 °F 25.4 °F 26.6 °F 86% 30.10 in 10.0 mi SW 4.6 mph - N/A   Clear
5:11 AM 30.2 °F 24.3 °F 26.6 °F 86% 30.09 in 10.0 mi SSW 5.8 mph - N/A   Clear
5:31 AM 30.2 °F 24.3 °F 26.6 °F 86% 30.09 in 10.0 mi SW 5.8 mph - N/A   Clear
5:51 AM 30.2 °F 25.4 °F 26.6 °F 86% 30.09 in 10.0 mi SW 4.6 mph - N/A   Clear
6:11 AM 30.2 °F 24.3 °F 26.6 °F 86% 30.08 in 10.0 mi SW 5.8 mph - N/A   Clear
6:32 AM 32.0 °F 26.4 °F 26.6 °F 80% 30.07 in 10.0 mi SSW 5.8 mph - N/A   Clear
6:51 AM 32.0 °F 27.5 °F 26.6 °F 80% 30.07 in 10.0 mi SSW 4.6 mph - N/A   Clear
7:10 AM 32.0 °F 26.4 °F 26.6 °F 80% 30.06 in 10.0 mi SW 5.8 mph - N/A   Clear
7:31 AM 32.0 °F 26.4 °F 26.6 °F 80% 30.06 in 10.0 mi SSW 5.8 mph - N/A   Clear
7:51 AM 32.0 °F 26.4 °F 26.6 °F 80% 30.05 in 10.0 mi SSW 5.8 mph - N/A   Clear
8:12 AM 32.0 °F 24.8 °F 26.6 °F 80% 30.05 in 10.0 mi SSW 8.1 mph - N/A   Clear
8:51 AM 33.8 °F 27.7 °F 28.4 °F 81% 30.04 in 10.0 mi SSW 6.9 mph - N/A   Clear
9:11 AM 35.6 °F 29.2 °F 28.4 °F 75% 30.04 in 10.0 mi SW 8.1 mph - N/A   Clear
9:30 AM 37.4 °F 31.4 °F 28.4 °F 70% 30.04 in 10.0 mi SW 8.1 mph - N/A   Scattered Clouds
9:51 AM 37.4 °F 31.4 °F 26.6 °F 65% 30.04 in 10.0 mi SW 8.1 mph - N/A   Mostly Cloudy
10:11 AM 37.4 °F 32.1 °F 26.6 °F 65% 30.03 in 10.0 mi SW 6.9 mph - N/A   Scattered Clouds
10:31 AM 39.2 °F 33.0 °F 26.6 °F 61% 30.03 in 10.0 mi SW 9.2 mph - N/A   Clear
10:51 AM 41.0 °F 34.7 °F 26.6 °F 57% 30.03 in 10.0 mi SW 10.4 mph 20.7 mph N/A   Clear
11:11 AM 42.8 °F 37.5 °F 24.8 °F 49% 30.02 in 10.0 mi SW 9.2 mph 20.7 mph N/A   Clear
11:31 AM 42.8 °F 35.8 °F 24.8 °F 49% 30.02 in 10.0 mi SW 13.8 mph 18.4 mph N/A   Clear
11:51 AM 44.6 °F 39.7 °F 23.0 °F 43% 30.02 in 10.0 mi SW 9.2 mph 17.3 mph N/A   Clear
12:11 PM 46.4 °F 41.9 °F 21.2 °F 37% 30.01 in 10.0 mi WSW 9.2 mph 18.4 mph N/A   Clear
12:31 PM 46.4 °F 41.9 °F 21.2 °F 37% 30.00 in 10.0 mi WSW 9.2 mph 25.3 mph N/A   Clear
12:52 PM 46.4 °F 40.4 °F 19.4 °F 34% 30.00 in 10.0 mi WSW 13.8 mph 24.2 mph N/A   Clear
1:11 PM 46.4 °F 40.1 °F 21.2 °F 37% 29.99 in 10.0 mi SW 15.0 mph 24.2 mph N/A   Clear
1:31 PM 46.4 °F 39.8 °F 21.2 °F 37% 29.98 in 10.0 mi SW 16.1 mph 20.7 mph N/A   Clear
1:51 PM 48.2 °F - 21.2 °F 34% 29.97 in 10.0 mi SSW 16.1 mph 23.0 mph N/A   Clear
2:11 PM 48.2 °F - 23.0 °F 37% 29.95 in 10.0 mi SSW 10.4 mph 17.3 mph N/A   Clear
2:31 PM 48.2 °F - 24.8 °F 40% 29.95 in 10.0 mi SSW 12.7 mph 20.7 mph N/A   Clear
2:49 PM 48.2 °F - 24.8 °F 40% 29.94 in 10.0 mi SSW 15.0 mph 20.7 mph N/A   Clear
3:11 PM 48.2 °F - 23.0 °F 37% 29.93 in 10.0 mi SSW 10.4 mph 19.6 mph N/A   Scattered Clouds
3:31 PM 50.0 °F - 23.0 °F 35% 29.92 in 10.0 mi SSW 12.7 mph 20.7 mph N/A   Scattered Clouds
3:51 PM 50.0 °F - 23.0 °F 35% 29.92 in 10.0 mi SSW 13.8 mph 20.7 mph N/A   Clear
4:11 PM 50.0 °F - 23.0 °F 35% 29.90 in 10.0 mi South 10.4 mph - N/A   Clear
4:31 PM 50.0 °F - 23.0 °F 35% 29.90 in 10.0 mi South 9.2 mph - N/A   Clear
4:50 PM 50.0 °F - 21.2 °F 32% 29.89 in 10.0 mi SSW 13.8 mph 21.9 mph N/A   Clear
5:12 PM 50.0 °F - 19.4 °F 30% 29.89 in 10.0 mi SW 11.5 mph 20.7 mph N/A   Clear
5:32 PM 50.0 °F - 21.2 °F 32% 29.89 in 10.0 mi SSW 13.8 mph - N/A   Clear
5:51 PM 48.2 °F - 21.2 °F 34% 29.88 in 10.0 mi South 5.8 mph - N/A   Clear
6:09 PM 46.4 °F 43.5 °F 21.2 °F 37% 29.88 in 10.0 mi South 5.8 mph - N/A   Clear
6:31 PM 44.6 °F 41.4 °F 23.0 °F 43% 29.87 in 10.0 mi South 5.8 mph - N/A   Clear
6:51 PM 42.8 °F 40.1 °F 23.0 °F 46% 29.87 in 10.0 mi South 4.6 mph - N/A   Clear
7:09 PM 42.8 °F 39.3 °F 23.0 °F 46% 29.87 in 10.0 mi South 5.8 mph - N/A   Clear
7:31 PM 41.0 °F 37.1 °F 23.0 °F 49% 29.87 in 10.0 mi South 5.8 mph - N/A   Clear
7:44 PM 41.0 °F 37.1 °F 21.2 °F 45% 29.87 in 10.0 mi South 5.8 mph - N/A   Clear
8:11 PM 39.2 °F 35.9 °F 21.2 °F 49% 29.87 in 10.0 mi South 4.6 mph - N/A   Clear
8:31 PM 37.4 °F 32.8 °F 21.2 °F 52% 29.87 in 10.0 mi South 5.8 mph - N/A   Clear
8:51 PM 37.4 °F 34.9 °F 21.2 °F 52% 29.86 in 10.0 mi South 3.5 mph - N/A   Clear
9:09 PM 37.4 °F 34.9 °F 21.2 °F 52% 29.86 in 10.0 mi South 3.5 mph - N/A   Clear
9:31 PM 37.4 °F 32.8 °F 21.2 °F 52% 29.85 in 10.0 mi South 5.8 mph - N/A   Clear
9:51 PM 37.4 °F 32.1 °F 19.4 °F 48% 29.85 in 10.0 mi South 6.9 mph - N/A   Clear
10:11 PM 37.4 °F 32.8 °F 19.4 °F 48% 29.85 in 10.0 mi South 5.8 mph - N/A   Clear
10:31 PM 37.4 °F 32.8 °F 19.4 °F 48% 29.84 in 10.0 mi South 5.8 mph - N/A   Clear
10:51 PM 37.4 °F 32.8 °F 21.2 °F 52% 29.83 in 10.0 mi South 5.8 mph - N/A   Clear
11:09 PM 37.4 °F 32.8 °F 21.2 °F 52% 29.82 in 10.0 mi South 5.8 mph - N/A   Clear
11:31 PM 35.6 °F 30.7 °F 21.2 °F 56% 29.82 in 10.0 mi South 5.8 mph - N/A   Clear
11:51 PM 35.6 °F 30.7 °F 21.2 °F 56% 29.81 in 10.0 mi South 5.8 mph - N/A   Clear